Hurlburt Field, FL

3:04 AM CDT on July 22, 2017 (GMT -0500)
Hurlburt

Weather History for KHRT - February, 2013

Change the Weather History Date:

Thursday, February 21, 2013

  Actual Average Record
Temperature  
Mean Temperature 51 °F -  
Max Temperature 64 °F 63 °F 75 °F (2005)
Min Temperature 38 °F 45 °F 30 °F (2009)
Degree Days  
Heating Degree Days 14    
Growing Degree Days 1 (Base 50)    
Moisture  
Dew Point 50 °F    
Average Humidity 82    
Maximum Humidity 100    
Minimum Humidity 56    
Precipitation  
Precipitation 0.00 in - - ()
Sea Level Pressure  
Sea Level Pressure 30.02 in    
Wind  
Wind Speed 9 mph (ESE)    
Max Wind Speed 14 mph    
Max Gust Speed 21 mph    
Visibility 10 miles    
Events Rain    
Averages and records for this station are not official NWS values.
T = Trace of Precipitation, MM = Missing Value Source: NWS Daily Summary

Daily Weather History Graph

Daily Weather History Graph

Search for Another Location

Airport or City:

Trip Planner

Search our weather history database for the weather conditions in past years. The results will help you decide how hot, cold, wet, or windy it might be!

Date:

Astronomy

Feb. 21, 2013 Rise Set
Actual Time 6:21 AM CST 5:39 PM CST
Civil Twilight 5:56 AM CST 6:04 PM CST
Nautical Twilight 5:28 AM CST 6:32 PM CST
Astronomical Twilight 5:00 AM CST 7:00 PM CST
Moon 2:04 PM CST (2/21) 3:14 AM CST (2/21)
Length of Visible Light 12h 07m
Length of Day
11h 18m
Waxing Gibbous, 84% of the Moon is Illuminated
Feb 21
Waxing Gibbous
Feb 25
Full
Mar 4
Last Quarter
Mar 11
New
Mar 19
First Quarter

Hourly Weather History & Observations

Time (CST) Temp. Windchill Dew Point Humidity Pressure Visibility Wind Dir Wind Speed Gust Speed Precip Events Conditions
12:58 AM 39.9 °F 35.8 °F 34.5 °F 81% 30.08 in 10.0 mi NNE 5.8 mph - N/A   Clear
1:58 AM 38.1 °F 33.7 °F 35.1 °F 89% 30.08 in 10.0 mi North 5.8 mph - N/A   Clear
2:58 AM 38.3 °F 33.9 °F 35.1 °F 88% 30.06 in 10.0 mi NNE 5.8 mph - N/A   Clear
3:58 AM 42.3 °F 38.6 °F 33.8 °F 72% 30.04 in 10.0 mi NE 5.8 mph - N/A   Scattered Clouds
4:58 AM 42.8 °F 38.6 °F 34.0 °F 71% 30.05 in 10.0 mi NE 6.9 mph - N/A   Clear
5:58 AM 46.4 °F 42.9 °F 32.0 °F 57% 30.08 in 10.0 mi ENE 6.9 mph - N/A   Overcast
6:58 AM 47.7 °F - 35.1 °F 62% 30.10 in 10.0 mi East 6.9 mph - N/A   Mostly Cloudy
7:31 AM 50.0 °F - 37.4 °F 62% 30.09 in 10.0 mi East 10.4 mph - N/A Rain Light Rain
7:40 AM 51.8 °F - 39.2 °F 62% 30.09 in 10.0 mi East 10.4 mph - N/A   Mostly Cloudy
7:58 AM 50.9 °F - 39.6 °F 65% 30.09 in 10.0 mi East 13.8 mph - 0.00 in   Mostly Cloudy
8:58 AM 51.6 °F - 39.2 °F 63% 30.12 in 10.0 mi East 11.5 mph - N/A   Mostly Cloudy
9:58 AM 54.0 °F - 40.5 °F 60% 30.12 in 10.0 mi East 11.5 mph - N/A   Overcast
10:58 AM 56.7 °F - 41.0 °F 56% 30.08 in 10.0 mi East 11.5 mph - N/A   Mostly Cloudy
11:58 AM 61.0 °F - 45.3 °F 56% 30.05 in 10.0 mi East 11.5 mph - N/A   Scattered Clouds
12:58 PM 62.6 °F - 49.8 °F 63% 30.02 in 10.0 mi SE 11.5 mph - N/A   Partly Cloudy
1:59 PM 62.6 °F - 55.4 °F 77% 29.99 in 10.0 mi SE 13.8 mph 20.7 mph N/A   Partly Cloudy
2:58 PM 63.7 °F - 58.1 °F 82% 29.98 in 10.0 mi SE 13.8 mph 18.4 mph N/A   Scattered Clouds
3:58 PM 63.5 °F - 60.4 °F 90% 29.97 in 10.0 mi ESE 9.2 mph - N/A   Clear
4:34 PM 62.6 °F - 62.6 °F 100% 29.94 in 10.0 mi ESE 9.2 mph - N/A   Light Drizzle
4:57 PM 62.6 °F - 62.6 °F 100% 29.94 in 10.0 mi SE 8.1 mph - N/A   Clear
4:58 PM 62.6 °F - 62.6 °F 100% 29.95 in 10.0 mi SE 8.1 mph - 0.00 in   Clear
5:58 PM 61.9 °F - 61.9 °F 100% 29.95 in 10.0 mi ESE 6.9 mph - 0.00 in   Clear
6:58 PM 61.7 °F - 61.7 °F 100% 29.96 in 10.0 mi SE 10.4 mph - N/A   Clear
7:05 PM 62.6 °F - 62.6 °F 100% 29.96 in 10.0 mi SE 9.2 mph - N/A   Mostly Cloudy
7:59 PM 62.6 °F - 62.6 °F 100% 29.97 in 10.0 mi SE 11.5 mph - N/A   Overcast
8:59 PM 62.6 °F - 62.6 °F 100% 29.97 in 10.0 mi SE 10.4 mph - N/A   Overcast
9:22 PM 62.6 °F - 62.6 °F 100% 29.97 in 10.0 mi SE 10.4 mph 18.4 mph N/A   Overcast
9:59 PM 62.6 °F - 62.6 °F 100% 29.96 in 10.0 mi SE 12.7 mph - N/A   Overcast
10:59 PM 64.4 °F - 64.4 °F 100% 29.95 in 10.0 mi SE 10.4 mph - N/A   Mostly Cloudy
11:56 PM 64.4 °F - 64.4 °F 100% 29.95 in 10.0 mi ESE 6.9 mph - N/A   Mostly Cloudy